CZ-6A DEB, 54561

Orbit data source: Space-Track

CZ-6A DEB, 54561 is space debris in SSO originally from a launch on Fri, 11 Nov 2022 UTC launched from the Taiyaun Space Center, China (TSC). Debris objects in space refer to the collection of defunct objects orbiting the Earth. Examples of debris include non-operational satellites, rocket bodies, and fragments generated from explosions, collisions, or faulty payload assembly.

Loading next visibility...
Identifier
54561, 2022-151LM
Orbit
SSO
Country
Flag of CNCN / PRC
Related business
Manufacturer
SAST
Mission
Spacecraft
Bus & Motor
Unknown
Mass
Unknown
Launch date (UTC)
2022-11-11 (4 years ago)
Launch vehicle
Unknown
Launch site
Taiyaun Space Center, China (TSC)
Object type
Payload
Rocket body
Debris
Shape & HBR
Unknown shape, 0.1 m
Radar Cross Section
Medium (>0.1 m² and <1 m²)

Expand to show TLE details & history
Last TLE update: 12 hours ago

TLE from 12 hours ago
0 CZ-6A DEB
1 54561U 22151LM  26237.06910882  .00000727  00000-0  26266-3 0  9997
2 54561  98.7716 281.4316 0131313 272.0328  86.5823 14.32045850197058
Epoch: 2026-08-25T01:39Z
TLE epoch observation values (Epoch: 2026-08-25T01:39:31.002Z)
Latitude
0.0001°
Longitude
-76.78935°
Altitude
783.454 km
Speed
7.464 km/s
True Right ascension
18h 45m 43s
True Declination
0° 00' 00"
Sunlit
Object was in full shadow at epoch
Visualization orbit readout
Latitude
Unknown
Longitude
Unknown
Altitude
Unknown
Speed
Unknown
Apparent Right ascension
Unknown
Apparent Declination
Unknown
Sunlit
N/A
Visualization observer readout
Local Sidereal Time
05:14:14
Azimuth
Unknown
Elevation
Unknown
Doppler factor
Unknown
Orbital elements
Apogee altitude
876.068 km
Perigee altitude
688.023 km
Semi-major axis
7,160.182 km
Eccentricity
0.01313
Inclination
98.7716°
RAAN
281.4316°
Arg. of periapsis
272.0328°
True anomaly
88.08566°
Mean anomaly
86.5823°
Eccentric anomaly
87.33385°
Mean motion
3.58226 °/min
Orbital period
100.5 mins
BSTAR
0.00026266
Loading maneuver chart data...
Computing Atmospheric mass density...
Loading historical data...
Loading historical data...
Loading historical data...
Loading historical data...
Loading historical data...
Loading historical data...
Loading historical data...

Documentation

Showing up to 5 results
|